TimeMDT,TemperatureF,Dew PointF,Humidity,Sea Level PressureIn,VisibilityMPH,Wind Direction,Wind SpeedMPH,Gust SpeedMPH,PrecipitationIn,Events,Conditions,WindDirDegrees,DateUTC
12:15 AM,46.4,32.0,57,30.18,10.0,WNW,15.0,20.7,N/A,,Unknown,300,2013-10-14 06:15:00
12:35 AM,46.4,32.0,57,30.18,10.0,WNW,13.8,-,N/A,,Clear,300,2013-10-14 06:35:00
12:55 AM,46.4,32.0,57,30.19,10.0,WNW,11.5,-,N/A,,Clear,300,2013-10-14 06:55:00
1:15 AM,46.4,32.0,57,30.19,10.0,WNW,10.4,18.4,N/A,,Clear,300,2013-10-14 07:15:00
1:35 AM,44.6,32.0,61,30.19,10.0,WNW,12.7,-,N/A,,Clear,290,2013-10-14 07:35:00
1:55 AM,44.6,32.0,61,30.20,10.0,WNW,12.7,-,N/A,,Clear,290,2013-10-14 07:55:00
2:15 AM,44.6,32.0,61,30.20,10.0,WNW,11.5,-,N/A,,Clear,290,2013-10-14 08:15:00
2:35 AM,44.6,32.0,61,30.20,10.0,WNW,10.4,17.3,N/A,,Clear,300,2013-10-14 08:35:00
2:55 AM,44.6,32.0,61,30.20,10.0,WNW,11.5,-,N/A,,Clear,300,2013-10-14 08:55:00
3:15 AM,44.6,32.0,61,30.21,10.0,WNW,11.5,18.4,N/A,,Clear,300,2013-10-14 09:15:00
3:35 AM,44.6,30.2,57,30.21,10.0,WNW,13.8,19.6,N/A,,Clear,290,2013-10-14 09:35:00
3:55 AM,42.8,30.2,61,30.21,10.0,WNW,13.8,18.4,N/A,,Clear,290,2013-10-14 09:55:00
4:15 AM,42.8,30.2,61,30.21,10.0,WNW,12.7,-,N/A,,Clear,300,2013-10-14 10:15:00
4:35 AM,42.8,30.2,61,30.21,10.0,WNW,12.7,-,N/A,,Clear,300,2013-10-14 10:35:00
4:55 AM,44.6,30.2,57,30.22,10.0,NW,9.2,-,N/A,,Clear,310,2013-10-14 10:55:00
5:15 AM,42.8,30.2,61,30.22,10.0,NW,12.7,-,N/A,,Clear,310,2013-10-14 11:15:00
5:35 AM,42.8,30.2,61,30.23,10.0,WNW,10.4,-,N/A,,Clear,300,2013-10-14 11:35:00
5:55 AM,42.8,30.2,61,30.23,10.0,NW,9.2,-,N/A,,Clear,320,2013-10-14 11:55:00
6:15 AM,41.0,30.2,65,30.23,10.0,NW,9.2,-,N/A,,Clear,310,2013-10-14 12:15:00
6:35 AM,41.0,30.2,65,30.24,10.0,NW,9.2,-,N/A,,Clear,320,2013-10-14 12:35:00
6:55 AM,41.0,30.2,65,30.24,10.0,NW,8.1,-,N/A,,Clear,320,2013-10-14 12:55:00
7:15 AM,41.0,30.2,65,30.25,10.0,NW,9.2,-,N/A,,Clear,320,2013-10-14 13:15:00
7:35 AM,41.0,30.2,65,30.25,10.0,NW,8.1,-,N/A,,Clear,320,2013-10-14 13:35:00
7:55 AM,39.2,30.2,70,30.26,10.0,NNW,5.8,-,N/A,,Clear,330,2013-10-14 13:55:00
8:15 AM,39.2,30.2,70,30.27,10.0,NW,6.9,-,N/A,,Clear,320,2013-10-14 14:15:00
8:35 AM,41.0,30.2,65,30.27,10.0,NW,6.9,-,N/A,,Clear,310,2013-10-14 14:35:00
8:55 AM,41.0,28.4,61,30.28,10.0,NW,5.8,-,N/A,,Clear,320,2013-10-14 14:55:00
9:15 AM,42.8,28.4,57,30.29,10.0,NW,10.4,-,N/A,,Clear,310,2013-10-14 15:15:00
9:35 AM,44.6,28.4,53,30.30,10.0,WNW,9.2,-,N/A,,Clear,300,2013-10-14 15:35:00
9:55 AM,44.6,28.4,53,30.30,10.0,NW,13.8,19.6,N/A,,Clear,320,2013-10-14 15:55:00
10:15 AM,46.4,28.4,50,30.30,10.0,NW,15.0,18.4,N/A,,Clear,320,2013-10-14 16:15:00
10:35 AM,46.4,28.4,50,30.30,10.0,NW,12.7,18.4,N/A,,Clear,320,2013-10-14 16:35:00
10:55 AM,48.2,28.4,46,30.30,10.0,NW,13.8,18.4,N/A,,Clear,320,2013-10-14 16:55:00
11:15 AM,50.0,28.4,43,30.30,10.0,WNW,15.0,18.4,N/A,,Clear,300,2013-10-14 17:15:00
11:35 AM,50.0,28.4,43,30.30,10.0,NW,15.0,19.6,N/A,,Clear,320,2013-10-14 17:35:00
11:55 AM,51.8,28.4,41,30.30,10.0,NW,13.8,19.6,N/A,,Clear,310,2013-10-14 17:55:00
12:15 PM,51.8,28.4,41,30.30,10.0,NW,12.7,-,N/A,,Clear,320,2013-10-14 18:15:00
12:35 PM,53.6,28.4,38,30.29,10.0,NW,11.5,20.7,N/A,,Clear,320,2013-10-14 18:35:00
12:55 PM,55.4,28.4,36,30.29,10.0,WNW,13.8,21.9,N/A,,Clear,300,2013-10-14 18:55:00
1:15 PM,55.4,26.6,33,30.28,10.0,NW,15.0,23.0,N/A,,Clear,310,2013-10-14 19:15:00
1:35 PM,55.4,26.6,33,30.28,10.0,NNW,13.8,23.0,N/A,,Clear,330,2013-10-14 19:35:00
1:55 PM,55.4,26.6,33,30.27,10.0,NW,17.3,25.3,N/A,,Clear,320,2013-10-14 19:55:00
2:15 PM,57.2,26.6,31,30.26,10.0,NNW,17.3,23.0,N/A,,Clear,330,2013-10-14 20:15:00
2:35 PM,57.2,26.6,31,30.26,10.0,NNW,16.1,19.6,N/A,,Clear,330,2013-10-14 20:35:00
2:55 PM,59.0,24.8,27,30.25,10.0,WNW,19.6,25.3,N/A,,Clear,300,2013-10-14 20:55:00
3:15 PM,59.0,24.8,27,30.24,10.0,NW,16.1,21.9,N/A,,Clear,320,2013-10-14 21:15:00
3:35 PM,59.0,24.8,27,30.24,10.0,NNW,17.3,23.0,N/A,,Clear,330,2013-10-14 21:35:00
3:55 PM,59.0,24.8,27,30.24,10.0,NW,12.7,19.6,N/A,,Clear,320,2013-10-14 21:55:00
4:15 PM,59.0,24.8,27,30.24,10.0,North,13.8,18.4,N/A,,Clear,350,2013-10-14 22:15:00
4:35 PM,59.0,23.0,25,30.24,10.0,North,16.1,20.7,N/A,,Clear,350,2013-10-14 22:35:00
4:55 PM,59.0,23.0,25,30.23,10.0,NNW,12.7,16.1,N/A,,Clear,330,2013-10-14 22:55:00
5:15 PM,59.0,23.0,25,30.23,10.0,NNW,10.4,18.4,N/A,,Clear,330,2013-10-14 23:15:00
5:35 PM,59.0,23.0,25,30.23,10.0,NNW,11.5,16.1,N/A,,Clear,330,2013-10-14 23:35:00
5:55 PM,59.0,23.0,25,30.23,10.0,NW,11.5,-,N/A,,Clear,310,2013-10-14 23:55:00
6:15 PM,59.0,23.0,25,30.23,10.0,NW,8.1,-,N/A,,Clear,320,2013-10-15 00:15:00
6:35 PM,57.2,24.8,29,30.23,10.0,NW,10.4,16.1,N/A,,Clear,320,2013-10-15 00:35:00
6:55 PM,57.2,24.8,29,30.23,10.0,NW,8.1,-,N/A,,Clear,310,2013-10-15 00:55:00
7:15 PM,55.4,24.8,31,30.23,10.0,NW,6.9,-,N/A,,Clear,310,2013-10-15 01:15:00
7:35 PM,55.4,24.8,31,30.24,10.0,NW,10.4,-,N/A,,Clear,320,2013-10-15 01:35:00
7:55 PM,55.4,26.6,33,30.24,10.0,NW,10.4,-,N/A,,Clear,320,2013-10-15 01:55:00
8:15 PM,53.6,26.6,35,30.25,10.0,NW,9.2,16.1,N/A,,Clear,310,2013-10-15 02:15:00
8:35 PM,51.8,26.6,38,30.25,10.0,NW,6.9,-,N/A,,Clear,320,2013-10-15 02:35:00
8:55 PM,50.0,28.4,43,30.25,10.0,NW,8.1,-,N/A,,Clear,310,2013-10-15 02:55:00
9:15 PM,50.0,28.4,43,30.25,10.0,NW,5.8,-,N/A,,Clear,310,2013-10-15 03:15:00
9:35 PM,50.0,28.4,43,30.26,10.0,NW,8.1,-,N/A,,Clear,310,2013-10-15 03:35:00
9:55 PM,48.2,28.4,46,30.26,10.0,NW,6.9,-,N/A,,Clear,310,2013-10-15 03:55:00
10:15 PM,48.2,28.4,46,30.26,10.0,WNW,8.1,-,N/A,,Clear,300,2013-10-15 04:15:00
10:35 PM,46.4,28.4,50,30.26,10.0,WNW,8.1,-,N/A,,Clear,300,2013-10-15 04:35:00
10:55 PM,44.6,28.4,53,30.27,10.0,WNW,6.9,-,N/A,,Clear,290,2013-10-15 04:55:00
11:15 PM,44.6,28.4,53,30.27,10.0,West,5.8,-,N/A,,Unknown,280,2013-10-15 05:15:00
11:35 PM,44.6,28.4,53,30.28,10.0,West,6.9,-,N/A,,Unknown,280,2013-10-15 05:35:00
11:55 PM,42.8,30.2,61,30.28,10.0,WNW,6.9,-,N/A,,Clear,290,2013-10-15 05:55:00